Regional Weather Roundup
Issued by NWS Cleveland, OH

Home | Current Version | Previous Version | Graphics & Text | Print | Product List | Glossary On
Versions: 1 2 3 4 5 6 7 8 9 10 11 12 13 14 15 16 17 18 19 20 21 22 23 24 25 26 27 28 29 30 31 32 33 34 35 36 37 38 39 40 41 42 43 44 45 46 47 48 49 50
000
ASUS41 KCLE 270210
RWRCLE
OHIO REGIONAL WEATHER ROUNDUP
NATIONAL WEATHER SERVICE WILMINGTON, OH
900 PM EST WED NOV 26 2014

NOTE: "FAIR" INDICATES FEW OR NO CLOUDS BELOW 12,000 FEET WITH NO
SIGNIFICANT WEATHER AND/OR OBSTRUCTIONS TO VISIBILITY.

OHZ001>008-015>018-024>027-034-035-043-044-270300-
   NORTHWEST OHIO

CITY           SKY/WX    TMP DP  RH WIND       PRES   REMARKS
DEFIANCE       CLOUDY    31  25  78 N5        30.08F WCI  26
FINDLAY        CLOUDY    32  26  78 N8        30.05S WCI  25
TOLEDO EXPRESS CLOUDY    30  25  81 N5        30.07F WCI  25
TOLEDO METCALF CLOUDY    33  25  72 N7        30.08S WCI  27
LIMA           CLOUDY    31  25  78 N5        30.06R WCI  26
$$

OHZ009>014-019>023-028>033-038-089-270300-
   NORTHEAST OHIO

CITY           SKY/WX    TMP DP  RH WIND       PRES   REMARKS
CLE-HOPKINS    CLOUDY    33  27  78 SW5       30.05S WCI  29
CLE-LAKEFRONT  CLOUDY    36  30  79 SW9       30.03S
CUY CO. ARPT   MOCLDY    36  28  75 S5        30.02F
LORAIN-ELYRIA  CLOUDY    32  30  92 W7        30.04S WCI  26
ASHTABULA      CLOUDY    33  29  85 CALM      30.02F
AKRON-CANTON   CLOUDY    35  24  64 NW3       30.02R
WOOSTER        CLOUDY    32  27  81 N7        30.03S WCI  26
MANSFIELD      CLOUDY    31  29  92 NW5       30.02S WCI  26
YOUNGSTOWN     CLOUDY    34  29  82 CALM      30.00F
$$

OHZ042-051>053-060>062-070>072-077>081-270300-
  SOUTHWEST OHIO

CITY           SKY/WX    TMP DP  RH WIND       PRES   REMARKS
CINC-COVINGTON CLOUDY    34  24  67 NE9       30.04R WCI  27
CINC-LUNKEN    CLOUDY    33  26  75 N5        30.07S WCI  29
HAMILTON       CLOUDY    30  24  78 N6        30.08R WCI  24
DAYTON         CLOUDY    30  24  78 N7        30.06S WCI  23
WRIGHT-PAT AFB CLOUDY    31  24  75 N7        30.05F WCI  24
DAYTON GENERAL CLOUDY    29  24  82 N5        30.04F WCI  24
WILMINGTON     CLOUDY    31  24  75 N8        30.03S WCI  23
$$

OHZ036-037-039>041-045>050-054>059-063>069-073>076-082>088-270300-
  CENTRAL AND SOUTHEAST OHIO

CITY           SKY/WX    TMP DP  RH WIND       PRES   REMARKS
COLUMBUS       CLOUDY    34  26  72 N6        30.04S WCI  29
OSU AIRPORT    CLOUDY    33  25  72 N10       30.04R WCI  25
BOLTON FIELD   CLOUDY    33  27  80 MISG      30.04S
RICKENBACK AFB CLOUDY    32  25  75 NW5       30.04S WCI  28
NEWARK         CLOUDY    35  26  69 NW3       30.03S
MARION         CLOUDY    32  27  81 N6        30.04F WCI  26
LANCASTER      MOCLDY    32  26  78 N5        30.03F WCI  27
ZANESVILLE     CLOUDY    35  27  72 NW7       30.03R WCI  29
NEW PHILLY     CLOUDY    36  27  69 W5        30.03S
$$


USA.gov is the U.S. government's official web portal to all federal, state and local government web resources and services.